User: anonymous   Login
Location: Unspecified
(0.0000°N, 0.0000°E)
Time: 04:04:30
(UTC+00:00)
Language:

TET - Orbit

View from above orbital plane
View from above orbital plane
View from above satellite
View from above satellite

Ground track
Ground track

The orbit data is extracted from the following two-line orbital elements,

1 38710U 12039D   17295.85184032  .00004795  00000-0  99665-4 0  9993
2 38710  97.5593 257.1695 0003494  98.5777 261.5868 15.46175774293969
Epoch (UTC): 22 October 2017 20:26:39
Eccentricity: 0.0003494
inclination: 97.5593°
perigee height: 425 km
apogee height: 430 km
right ascension of ascending node: 257.1695°
argument of perigee: 98.5777°
revolutions per day: 15.46175774
mean anomaly at epoch: 261.5868°
orbit number at epoch: 29396

The dashed part of the orbit path shows where the satellite is in the earth's shadow,  

DLR